STARLINK-11382, 62881

Orbit data source: Space-Track

STARLINK-11382, 62881 is a payload satellite owned by SpaceX/Seattle (US) in LEO that was launched on Tue, 04 Feb 2025 UTC via an FALCON 9 launch vehicle from the Air Force Eastern Test Range (AFETR). Payload-class satellites include a variety of spacecraft equipped with specific instruments for various scientific and technological missions. These include communications satellites like Starlink; space stations such as the ISS; scientific satellites like the Hubble; Earth observation satellites from companies like Planet Labs, Umbra, and HawkEye 360; GPS; miniature CubeSats for education and research; and military/defense satellites.

Loading next visibility...
Identifier
62881, 2025-024C
Orbit
LEO
Last TLE update
2 days ago
Origin
Manufacturer
SpaceX/Seattle
Mission
Operational Commercial Communications
Bus & Motor
STARLINK V2M, Unknown motor
Mass
730 kg wet, ~700 kg dry
Launch date (UTC)
2025-02-04 (5 months ago)
Launch vehicle
FALCON 9
Launch site
Air Force Eastern Test Range (AFETR)
Object type
Payload
Rocket body
Debris
Shape & HBR
Box + 2 Pan, 29 m
Radar Cross Section
36.964 m², Large (>1 m²)

Expand to show TLE details & history

TLE from 2 days ago
0 STARLINK-11382
1 62881U 25024C   25182.26803021  .00165420  00000-0  12639-2 0  9999
2 62881  43.0004 257.0210 0002048 266.0467  94.0167 15.70900747 23923
Epoch: 2025-07-01T06:25Z
TLE epoch observation values (Epoch: 2025-07-01T06:25:57.81Z)
Latitude
0.00003°
Longitude
-119.03577°
Altitude
356.19 km
Speed
7.697 km/s
True Right ascension
17h 08m 05s
True Declination
0° 00' 00"
Sunlit
Object was in full shadow at epoch
Visualization orbit readout
Latitude
-30.21828°
Longitude
-166.96899°
Altitude
361.846 km
Speed
7.693 km/s
Apparent Right ascension
16h 40m 41s
Apparent Declination
-44° 59' 28"
Sunlit
Object is in full shadow
Visualization observer readout
Local Sidereal Time
08:06:28
Azimuth
115.129° SE
Elevation
-52.349°
Doppler factor
1
Orbital elements
Apogee altitude
359.683 km
Perigee altitude
356.923 km
Semi-major axis
6,736.44 km
Eccentricity
0.0002
Inclination
43.0004°
RAAN
257.021°
Arg. of periapsis
266.0467°
True anomaly
Unknown
Mean anomaly
94.0167°
Eccentric anomaly
Unknown
Mean motion
3.92552 °/min
Orbital period
91.71 mins
BSTAR
0.0012639
Loading maneuver chart data...
Loading SW <> Apogee altitude chart data...
Loading historical data...
Loading historical data...
Loading historical data...
Loading historical data...
Loading historical data...
Loading historical data...
Loading historical data...

STARLINK-11382 Visibility forecast

Observer location: undefined°, undefined°

Span
Click to sort rows by Start time (UTC) header in descending order
Start Az.
Max El. time (UTC)
Max El. Az.
Max El.
End time (UTC)
End Az.
4 mins2025-07-03 07:27:26.754Z200.972° SSW2025-07-03 07:29:26.754Z149.997° SSE22.42°2025-07-03 07:31:26.754Z97.886° ESE
4 mins2025-07-03 09:03:26.754Z263.066° W2025-07-03 09:05:26.754Z2.651° NNE43.087°2025-07-03 09:07:26.754Z67.402° ENE
4 mins2025-07-03 12:16:26.754Z286.151° WNW2025-07-03 12:17:26.754Z278.378° WNW42.067°2025-07-03 12:20:26.754Z111.361° ESE
|